Location: Unspecified
(0.0000°N, 0.0000°E)
Time: 18:28:20
(UTC+00:00)

STARLINK 1065 - Pass Details

Date: 23 January 2020
Orbit: 548 x 551 km, 53.0° (Epoch: 17 January)

Event Time Altitude Azimuth Distance (km) Brightness Sun altitude
Exits shadow 03:52:05 21° 103° (ESE) 1,258 6.0 -32.6°
Drops below altitude 10° 03:54:23 10° 71° (ENE) 1,811 6.8 -32.1°
Sets 03:56:57 0° 57° (ENE) 2,701 7.6 -31.5°
